Location: Asheville, NC
(35.6000°N, 82.5500°W)
Time: 00:20:11
(UTC-04:00)

BEESAT 2 - Pass Details

Date: 14 March 2018
Orbit: 502 x 533 km, 64.9° (Epoch: 22 June)

Event Time Altitude Azimuth Distance (km) Brightness Sun altitude
Rises 21:30:10 0° 228° (SW) 2,634 ? -23.6°
Reaches altitude 10° 21:32:28 10° 237° (WSW) 1,755 ? -24.1°
Maximum altitude 21:36:05 35° 304° (NW) 864 ? -24.8°
Enters shadow 21:38:54 15° 5° (N) 1,472 ? -25.3°
